Project,Study,Ord_Occ,Event_Num,Date_Time_UTC,Date_Time_PST,Lat_Dec,Lon_Dec,Sta_ID,Line,Sta,Depth,Pressure,Temp0,Temp1,Salt0,CorrSalt0,Salt1,CorrSalt1,O2ml/L,AveCorrO2ml/L,StaCorrO2ml/L,FluorV,AveEstChl,StaEstChl,ISUSV,AveEstNO3,StaEstNO3,SigThetaTS0,SigThetaTS1,BAT,XMiss,SPAR,PAR,BTL_Depth,BTL_Temp,BTL_Salt,BTL_O2ml/L,BTL_Chl,BTL_Pha,BTL_NO3
CalCOFI,0701JD,071,703,29-Jan-2007 1:30:28 PM,29-Jan-2007 5:30:28 AM,34.38832,-122.24484,076.7 070.0,076.7,070.0,515.000,519.369,5.5582,5.5591,34.2414,34.2401,34.2384,34.2385,0.38872,0.44,0.49,0.0247,,,1.7648,41.31,40.497,27.0132,27.0107,-9.990e-29,90.5256,4.6211e+00,9.9990e+03,515,5.56 ,34.236,  .39,,,41.0
CalCOFI,0701JD,071,703,29-Jan-2007 1:30:30 PM,29-Jan-2007 5:30:30 AM,34.38832,-122.24484,076.7 070.0,076.7,070.0,514.000,518.359,5.5587,5.5594,34.2428,34.2415,34.2397,34.2398,0.38613,0.44,0.48,0.0246,,,1.7542,41.00,40.164,27.0142,27.0117,-9.990e-29,90.5256,4.4354e+00,9.9990e+03,,,,,,,
CalCOFI,0701JD,071,703,29-Jan-2007 1:30:36 PM,29-Jan-2007 5:30:36 AM,34.38832,-122.24484,076.7 070.0,076.7,070.0,513.000,517.350,5.5588,5.5595,34.2434,34.2421,34.2402,34.2403,0.38441,0.43,0.48,0.0246,,,1.7721,41.53,40.727,27.0146,27.0121,-9.990e-29,90.5256,4.8154e+00,9.9990e+03,,,,,,,
CalCOFI,0701JD,071,703,29-Jan-2007 1:31:22 PM,29-Jan-2007 5:31:22 AM,34.38832,-122.24484,076.7 070.0,076.7,070.0,512.000,516.340,5.5590,5.5596,34.2430,34.2417,34.2403,34.2404,0.37598,0.42,0.47,0.0246,,,1.7441,40.71,39.846,27.0143,27.0121,0.3978,90.5294,4.4054e+00,9.9990e+03,,,,,,,
CalCOFI,0701JD,071,703,29-Jan-2007 1:31:23 PM,29-Jan-2007 5:31:23 AM,34.38832,-122.24484,076.7 070.0,076.7,070.0,511.000,515.330,5.5603,5.5611,34.2423,34.2410,34.2395,34.2396,0.37734,0.43,0.47,0.0248,,,1.7547,41.02,40.179,27.0136,27.0113,0.3980,90.5275,5.1737e+00,9.9990e+03,,,,,,,
CalCOFI,0701JD,071,703,29-Jan-2007 1:31:24 PM,29-Jan-2007 5:31:24 AM,34.38832,-122.24484,076.7 070.0,076.7,070.0,510.000,514.320,5.5621,5.5628,34.2418,34.2405,34.2390,34.2391,0.37725,0.43,0.47,0.0247,,,1.7475,40.81,39.953,27.0130,27.0106,0.3980,90.5276,5.0678e+00,9.9990e+03,,,,,,,
CalCOFI,0701JD,071,703,29-Jan-2007 1:31:25 PM,29-Jan-2007 5:31:25 AM,34.38832,-122.24484,076.7 070.0,076.7,070.0,509.000,513.311,5.5623,5.5628,34.2409,34.2396,34.2383,34.2384,0.38005,0.43,0.47,0.0247,,,1.7712,41.50,40.699,27.0122,27.0101,0.3982,90.5246,4.6079e+00,9.9990e+03,,,,,,,
CalCOFI,0701JD,071,703,29-Jan-2007 1:31:26 PM,29-Jan-2007 5:31:26 AM,34.38832,-122.24484,076.7 070.0,076.7,070.0,508.000,512.301,5.5599,5.5604,34.2382,34.2369,34.2364,34.2365,0.38277,0.43,0.48,0.0247,,,1.7662,41.35,40.541,27.0103,27.0089,0.3980,90.5277,4.5588e+00,9.9990e+03,,,,,,,
CalCOFI,0701JD,071,703,29-Jan-2007 1:31:27 PM,29-Jan-2007 5:31:27 AM,34.38832,-122.24484,076.7 070.0,076.7,070.0,507.000,511.291,5.5500,5.5490,34.2340,34.2327,34.2336,34.2337,0.38713,0.44,0.48,0.0251,,,1.7776,41.69,40.900,27.0082,27.0080,0.3982,90.5232,4.4792e+00,9.9990e+03,,,,,,,
CalCOFI,0701JD,071,703,29-Jan-2007 1:31:28 PM,29-Jan-2007 5:31:28 AM,34.38832,-122.24484,076.7 070.0,076.7,070.0,506.000,510.282,5.5369,5.5363,34.2308,34.2295,34.2303,34.2304,0.39073,0.44,0.49,0.0246,,,1.8018,42.40,41.662,27.0073,27.0070,0.3975,90.5399,5.2148e+00,9.9990e+03,,,,,,,
CalCOFI,0701JD,071,703,29-Jan-2007 1:31:29 PM,29-Jan-2007 5:31:29 AM,34.38832,-122.24484,076.7 070.0,076.7,070.0,505.000,509.272,5.5142,5.5132,34.2252,34.2239,34.2247,34.2248,0.39425,0.45,0.49,0.0246,,,1.7937,42.16,41.407,27.0055,27.0052,0.3978,90.5320,5.0059e+00,9.9990e+03,,,,,,,
CalCOFI,0701JD,071,703,29-Jan-2007 1:31:30 PM,29-Jan-2007 5:31:30 AM,34.38832,-122.24484,076.7 070.0,076.7,070.0,504.000,508.262,5.5140,5.5153,34.2280,34.2267,34.2242,34.2243,0.39604,0.45,0.49,0.0245,,,1.7801,41.76,40.979,27.0078,27.0046,0.3977,90.5358,5.0627e+00,9.9990e+03,,,,,,,
CalCOFI,0701JD,071,703,29-Jan-2007 1:31:31 PM,29-Jan-2007 5:31:31 AM,34.38832,-122.24484,076.7 070.0,076.7,070.0,503.000,507.253,5.5446,5.5480,34.2349,34.2336,34.2266,34.2267,0.39733,0.45,0.50,0.0248,,,1.7799,41.76,40.973,27.0096,27.0026,0.3980,90.5279,5.1202e+00,9.9990e+03,,,,,,,
CalCOFI,0701JD,071,703,29-Jan-2007 1:31:32 PM,29-Jan-2007 5:31:32 AM,34.38832,-122.24484,076.7 070.0,076.7,070.0,502.000,506.243,5.5768,5.5799,34.2349,34.2336,34.2291,34.2292,0.39843,0.45,0.50,0.0251,,,1.7683,41.42,40.608,27.0057,27.0007,0.3980,90.5290,5.0619e+00,9.9990e+03,,,,,,,
CalCOFI,0701JD,071,703,29-Jan-2007 1:31:33 PM,29-Jan-2007 5:31:33 AM,34.38832,-122.24484,076.7 070.0,076.7,070.0,501.000,505.233,5.5809,5.5795,34.2302,34.2289,34.2283,34.2284,0.40035,0.45,0.50,0.0248,,,1.7409,40.61,39.745,27.0014,27.0001,0.3978,90.5322,4.2916e+00,9.9990e+03,,,,,,,
CalCOFI,0701JD,071,703,29-Jan-2007 1:31:34 PM,29-Jan-2007 5:31:34 AM,34.38832,-122.24484,076.7 070.0,076.7,070.0,500.000,504.224,5.5790,5.5804,34.2306,34.2293,34.2269,34.2270,0.40303,0.46,0.50,0.0245,,,1.7261,40.18,39.279,27.0020,26.9988,0.3978,90.5326,4.8472e+00,9.9990e+03,,,,,,,
CalCOFI,0701JD,071,703,29-Jan-2007 1:31:35 PM,29-Jan-2007 5:31:35 AM,34.38832,-122.24484,076.7 070.0,076.7,070.0,499.000,503.214,5.5760,5.5728,34.2254,34.2241,34.2250,34.2251,0.40235,0.46,0.50,0.0248,,,1.7571,41.09,40.255,26.9982,26.9982,0.3980,90.5288,4.8414e+00,9.9990e+03,,,,,,,
CalCOFI,0701JD,071,703,29-Jan-2007 1:31:36 PM,29-Jan-2007 5:31:36 AM,34.38832,-122.24484,076.7 070.0,076.7,070.0,498.000,502.204,5.6126,5.6208,34.2416,34.2403,34.2307,34.2308,0.40222,0.46,0.50,0.0248,,,1.8011,42.38,41.640,27.0066,26.9969,0.3973,90.5449,5.1520e+00,9.9990e+03,,,,,,,
CalCOFI,0701JD,071,703,29-Jan-2007 1:31:37 PM,29-Jan-2007 5:31:37 AM,34.38832,-122.24484,076.7 070.0,076.7,070.0,497.000,501.195,5.6311,5.6319,34.2341,34.2328,34.2317,34.2318,0.40363,0.46,0.50,0.0248,,,1.7771,41.67,40.885,26.9984,26.9964,0.3980,90.5276,4.4180e+00,9.9990e+03,,,,,,,
CalCOFI,0701JD,071,703,29-Jan-2007 1:31:38 PM,29-Jan-2007 5:31:38 AM,34.38832,-122.24484,076.7 070.0,076.7,070.0,496.000,500.185,5.6314,5.6321,34.2325,34.2312,34.2302,34.2303,0.40441,0.46,0.51,0.0249,,,1.7677,41.40,40.589,26.9971,26.9952,0.3981,90.5247,5.1604e+00,9.9990e+03,,,,,,,
CalCOFI,0701JD,071,703,29-Jan-2007 1:31:39 PM,29-Jan-2007 5:31:39 AM,34.38832,-122.24484,076.7 070.0,076.7,070.0,495.000,499.175,5.6359,5.6432,34.2318,34.2305,34.2265,34.2266,0.40641,0.46,0.51,0.0247,,,1.7817,41.81,41.030,26.9960,26.9909,0.3983,90.5210,4.9049e+00,9.9990e+03,,,,,,,
CalCOFI,0701JD,071,703,29-Jan-2007 1:31:40 PM,29-Jan-2007 5:31:40 AM,34.38832,-122.24484,076.7 070.0,076.7,070.0,494.000,498.166,5.6448,5.6451,34.2310,34.2297,34.2281,34.2282,0.40958,0.47,0.51,0.0253,,,1.7985,42.30,41.559,26.9943,26.9919,0.3979,90.5308,4.6009e+00,9.9990e+03,,,,,,,
CalCOFI,0701JD,071,703,29-Jan-2007 1:31:41 PM,29-Jan-2007 5:31:41 AM,34.38832,-122.24484,076.7 070.0,076.7,070.0,493.000,497.156,5.6405,5.6393,34.2270,34.2257,34.2268,34.2269,0.41447,0.47,0.52,0.0247,,,1.7560,41.06,40.220,26.9916,26.9916,0.3978,90.5342,5.2409e+00,9.9990e+03,,,,,,,
CalCOFI,0701JD,071,703,29-Jan-2007 1:31:42 PM,29-Jan-2007 5:31:42 AM,34.38832,-122.24484,076.7 070.0,076.7,070.0,492.000,496.146,5.6521,5.6599,34.2264,34.2251,34.2202,34.2203,0.41849,0.48,0.52,0.0248,,,1.7945,42.19,41.433,26.9897,26.9839,0.3981,90.5251,4.7796e+00,9.9990e+03,,,,,,,
CalCOFI,0701JD,071,703,29-Jan-2007 1:31:44 PM,29-Jan-2007 5:31:44 AM,34.38832,-122.24484,076.7 070.0,076.7,070.0,491.000,495.137,5.6625,5.6602,34.2215,34.2202,34.2201,34.2202,0.42020,0.48,0.52,0.0245,,,1.8085,42.60,41.873,26.9846,26.9837,0.3978,90.5335,4.9027e+00,9.9990e+03,,,,,,,
CalCOFI,0701JD,071,703,29-Jan-2007 1:31:45 PM,29-Jan-2007 5:31:45 AM,34.38832,-122.24484,076.7 070.0,076.7,070.0,490.000,494.127,5.6492,5.6471,34.2222,34.2209,34.2218,34.2219,0.42331,0.48,0.53,0.0247,,,1.7158,39.88,38.955,26.9867,26.9866,0.3973,90.5442,4.4973e+00,9.9990e+03,,,,,,,
CalCOFI,0701JD,071,703,29-Jan-2007 1:31:46 PM,29-Jan-2007 5:31:46 AM,34.38832,-122.24484,076.7 070.0,076.7,070.0,489.000,493.117,5.6406,5.6437,34.2264,34.2251,34.2217,34.2218,0.42553,0.48,0.53,0.0248,,,1.7612,41.21,40.384,26.9911,26.9869,0.3974,90.5425,4.7145e+00,9.9990e+03,,,,,,,
CalCOFI,0701JD,071,703,29-Jan-2007 1:31:46 PM,29-Jan-2007 5:31:46 AM,34.38832,-122.24484,076.7 070.0,076.7,070.0,488.000,492.108,5.6746,5.6777,34.2221,34.2208,34.2180,34.2181,0.42758,0.49,0.53,0.0247,,,1.7462,40.77,39.912,26.9835,26.9799,0.3979,90.5301,4.9735e+00,9.9990e+03,,,,,,,
CalCOFI,0701JD,071,703,29-Jan-2007 1:31:47 PM,29-Jan-2007 5:31:47 AM,34.38832,-122.24484,076.7 070.0,076.7,070.0,487.000,491.098,5.6731,5.6731,34.2210,34.2197,34.2189,34.2190,0.42878,0.49,0.54,0.0247,,,1.7331,40.38,39.499,26.9828,26.9811,0.3975,90.5414,4.5437e+00,9.9990e+03,,,,,,,
CalCOFI,0701JD,071,703,29-Jan-2007 1:31:48 PM,29-Jan-2007 5:31:48 AM,34.38832,-122.24484,076.7 070.0,076.7,070.0,486.000,490.089,5.6712,5.6683,34.2210,34.2197,34.2195,34.2196,0.43054,0.49,0.54,0.0250,,,1.7314,40.33,39.446,26.9830,26.9822,0.3978,90.5327,4.4014e+00,9.9990e+03,,,,,,,
CalCOFI,0701JD,071,703,29-Jan-2007 1:31:49 PM,29-Jan-2007 5:31:49 AM,34.38832,-122.24484,076.7 070.0,076.7,070.0,485.000,489.079,5.6809,5.6814,34.2214,34.2201,34.2179,34.2180,0.43181,0.49,0.54,0.0245,,,1.7588,41.14,40.308,26.9821,26.9793,0.3976,90.5389,5.5244e+00,9.9990e+03,,,,,,,
CalCOFI,0701JD,071,703,29-Jan-2007 1:31:49 PM,29-Jan-2007 5:31:49 AM,34.38832,-122.24484,076.7 070.0,076.7,070.0,484.000,488.069,5.6811,5.6823,34.2198,34.2185,34.2178,34.2179,0.43349,0.49,0.54,0.0249,,,1.7672,41.38,40.573,26.9808,26.9791,0.3978,90.5333,5.1554e+00,9.9990e+03,,,,,,,
CalCOFI,0701JD,071,703,29-Jan-2007 1:31:50 PM,29-Jan-2007 5:31:50 AM,34.38832,-122.24484,076.7 070.0,076.7,070.0,483.000,487.060,5.6844,5.6863,34.2207,34.2194,34.2174,34.2175,0.43507,0.50,0.54,0.0249,,,1.7419,40.64,39.776,26.9811,26.9783,0.3980,90.5270,5.1201e+00,9.9990e+03,,,,,,,
CalCOFI,0701JD,071,703,29-Jan-2007 1:31:51 PM,29-Jan-2007 5:31:51 AM,34.38832,-122.24484,076.7 070.0,076.7,070.0,482.000,486.050,5.6946,5.6960,34.2191,34.2178,34.2158,34.2159,0.43702,0.50,0.55,0.0249,,,1.7443,40.71,39.852,26.9787,26.9759,0.3976,90.5377,4.8075e+00,9.9990e+03,,,,,,,
CalCOFI,0701JD,071,703,29-Jan-2007 1:31:52 PM,29-Jan-2007 5:31:52 AM,34.38832,-122.24484,076.7 070.0,076.7,070.0,481.000,485.041,5.6979,5.6986,34.2178,34.2165,34.2155,34.2156,0.43823,0.50,0.55,0.0247,,,1.7516,40.93,40.082,26.9772,26.9753,0.3974,90.5430,4.7997e+00,9.9990e+03,,,,,,,
CalCOFI,0701JD,071,703,29-Jan-2007 1:31:54 PM,29-Jan-2007 5:31:54 AM,34.38832,-122.24484,076.7 070.0,076.7,070.0,480.000,484.031,5.6952,5.6968,34.2185,34.2172,34.2159,34.2160,0.43950,0.50,0.55,0.0247,,,1.7906,42.07,41.310,26.9781,26.9758,0.3977,90.5346,4.8267e+00,9.9990e+03,,,,,,,
CalCOFI,0701JD,071,703,29-Jan-2007 1:31:55 PM,29-Jan-2007 5:31:55 AM,34.38832,-122.24484,076.7 070.0,076.7,070.0,479.000,483.022,5.6936,5.6936,34.2185,34.2172,34.2167,34.2168,0.44035,0.50,0.55,0.0251,,,1.7649,41.32,40.501,26.9783,26.9768,0.3976,90.5392,4.9549e+00,9.9990e+03,,,,,,,
CalCOFI,0701JD,071,703,29-Jan-2007 1:31:57 PM,29-Jan-2007 5:31:57 AM,34.38832,-122.24484,076.7 070.0,076.7,070.0,478.000,482.012,5.6941,5.6953,34.2195,34.2182,34.2167,34.2168,0.44131,0.50,0.55,0.0250,,,1.7661,41.35,40.538,26.9790,26.9766,0.3976,90.5383,5.1879e+00,9.9990e+03,,,,,,,
CalCOFI,0701JD,071,703,29-Jan-2007 1:31:58 PM,29-Jan-2007 5:31:58 AM,34.38832,-122.24484,076.7 070.0,076.7,070.0,477.000,481.002,5.7004,5.7012,34.2178,34.2165,34.2152,34.2153,0.44504,0.51,0.56,0.0247,,,1.7296,40.28,39.389,26.9769,26.9747,0.3972,90.5479,5.1174e+00,9.9990e+03,,,,,,,
CalCOFI,0701JD,071,703,29-Jan-2007 1:31:59 PM,29-Jan-2007 5:31:59 AM,34.38832,-122.24484,076.7 070.0,076.7,070.0,476.000,479.993,5.7021,5.7039,34.2157,34.2144,34.2127,34.2128,0.44677,0.51,0.56,0.0248,,,1.7699,41.46,40.658,26.9750,26.9724,0.3972,90.5478,4.9482e+00,9.9990e+03,,,,,,,
CalCOFI,0701JD,071,703,29-Jan-2007 1:32:00 PM,29-Jan-2007 5:32:00 AM,34.38832,-122.24484,076.7 070.0,076.7,070.0,475.000,478.983,5.7093,5.7099,34.2143,34.2130,34.2118,34.2119,0.44764,0.51,0.56,0.0249,,,1.7658,41.34,40.529,26.9730,26.9709,0.3975,90.5407,5.0139e+00,9.9990e+03,,,,,,,
CalCOFI,0701JD,071,703,29-Jan-2007 1:32:00 PM,29-Jan-2007 5:32:00 AM,34.38832,-122.24484,076.7 070.0,076.7,070.0,474.000,477.974,5.7090,5.7083,34.2137,34.2124,34.2122,34.2123,0.44924,0.51,0.56,0.0245,,,1.7465,40.78,39.921,26.9725,26.9714,0.3972,90.5474,5.0816e+00,9.9990e+03,,,,,,,
CalCOFI,0701JD,071,703,29-Jan-2007 1:32:01 PM,29-Jan-2007 5:32:01 AM,34.38832,-122.24484,076.7 070.0,076.7,070.0,473.000,476.964,5.7134,5.7080,34.2133,34.2120,34.2122,34.2123,0.45071,0.52,0.56,0.0244,,,1.7879,41.99,41.225,26.9717,26.9715,0.3976,90.5380,4.7989e+00,9.9990e+03,,,,,,,
CalCOFI,0701JD,071,703,29-Jan-2007 1:32:02 PM,29-Jan-2007 5:32:02 AM,34.38832,-122.24484,076.7 070.0,076.7,070.0,472.000,475.955,5.7125,5.7107,34.2136,34.2123,34.2119,34.2120,0.45224,0.52,0.56,0.0242,,,1.7889,42.02,41.256,26.9720,26.9709,0.3981,90.5267,4.9086e+00,9.9990e+03,,,,,,,
CalCOFI,0701JD,071,703,29-Jan-2007 1:32:03 PM,29-Jan-2007 5:32:03 AM,34.38832,-122.24484,076.7 070.0,076.7,070.0,471.000,474.945,5.7142,5.7129,34.2132,34.2119,34.2110,34.2111,0.45373,0.52,0.57,0.0249,,,1.7707,41.49,40.683,26.9715,26.9699,0.3976,90.5381,5.1206e+00,9.9990e+03,,,,,,,
CalCOFI,0701JD,071,703,29-Jan-2007 1:32:03 PM,29-Jan-2007 5:32:03 AM,34.38832,-122.24484,076.7 070.0,076.7,070.0,470.000,473.936,5.7172,5.7169,34.2109,34.2096,34.2098,34.2099,0.45478,0.52,0.57,0.0249,,,1.7715,41.51,40.708,26.9693,26.9684,0.3984,90.5199,4.8074e+00,9.9990e+03,,,,,,,
CalCOFI,0701JD,071,703,29-Jan-2007 1:32:04 PM,29-Jan-2007 5:32:04 AM,34.38832,-122.24484,076.7 070.0,076.7,070.0,469.000,472.926,5.7150,5.7168,34.2150,34.2137,34.2116,34.2117,0.45650,0.52,0.57,0.0248,,,1.7657,41.34,40.526,26.9728,26.9699,0.3979,90.5312,4.7442e+00,9.9990e+03,,,,,,,
CalCOFI,0701JD,071,703,29-Jan-2007 1:32:05 PM,29-Jan-2007 5:32:05 AM,34.38832,-122.24484,076.7 070.0,076.7,070.0,468.000,471.917,5.7214,5.7204,34.2111,34.2098,34.2103,34.2104,0.45692,0.52,0.57,0.0251,,,1.7437,40.69,39.833,26.9689,26.9684,0.3977,90.5346,4.6960e+00,9.9990e+03,,,,,,,
CalCOFI,0701JD,071,703,29-Jan-2007 1:32:07 PM,29-Jan-2007 5:32:07 AM,34.38832,-122.24484,076.7 070.0,076.7,070.0,467.000,470.907,5.7159,5.7155,34.2124,34.2111,34.2104,34.2105,0.45846,0.52,0.57,0.0255,,,1.7747,41.60,40.809,26.9706,26.9690,0.3979,90.5309,4.9509e+00,9.9990e+03,,,,,,,
CalCOFI,0701JD,071,703,29-Jan-2007 1:32:08 PM,29-Jan-2007 5:32:08 AM,34.38832,-122.24484,076.7 070.0,076.7,070.0,466.000,469.898,5.7215,5.7230,34.2109,34.2096,34.2088,34.2089,0.45901,0.53,0.57,0.0247,,,1.7667,41.37,40.557,26.9687,26.9669,0.3980,90.5286,4.9921e+00,9.9990e+03,,,,,,,
CalCOFI,0701JD,071,703,29-Jan-2007 1:32:09 PM,29-Jan-2007 5:32:09 AM,34.38832,-122.24484,076.7 070.0,076.7,070.0,465.000,468.888,5.7242,5.7241,34.2115,34.2102,34.2088,34.2089,0.46055,0.53,0.57,0.0248,,,1.7827,41.84,41.061,26.9688,26.9667,0.3982,90.5233,5.1785e+00,9.9990e+03,,,,,,,
CalCOFI,0701JD,071,703,29-Jan-2007 1:32:11 PM,29-Jan-2007 5:32:11 AM,34.38832,-122.24484,076.7 070.0,076.7,070.0,464.000,467.879,5.7267,5.7261,34.2113,34.2100,34.2091,34.2092,0.46118,0.53,0.58,0.0250,,,1.7700,41.47,40.661,26.9684,26.9667,0.3977,90.5365,4.8033e+00,9.9990e+03,,,,,,,
CalCOFI,0701JD,071,703,29-Jan-2007 1:32:12 PM,29-Jan-2007 5:32:12 AM,34.38832,-122.24484,076.7 070.0,076.7,070.0,463.000,466.869,5.7248,5.7261,34.2107,34.2094,34.2085,34.2086,0.46419,0.53,0.58,0.0249,,,1.6903,39.13,38.152,26.9681,26.9662,0.3973,90.5460,4.7993e+00,9.9990e+03,,,,,,,
CalCOFI,0701JD,071,703,29-Jan-2007 1:32:13 PM,29-Jan-2007 5:32:13 AM,34.38832,-122.24484,076.7 070.0,076.7,070.0,462.000,465.860,5.7306,5.7318,34.2106,34.2093,34.2079,34.2080,0.46961,0.54,0.59,0.0244,,,1.7569,41.08,40.249,26.9673,26.9650,0.3974,90.5421,5.0158e+00,9.9990e+03,,,,,,,
CalCOFI,0701JD,071,703,29-Jan-2007 1:32:13 PM,29-Jan-2007 5:32:13 AM,34.38832,-122.24484,076.7 070.0,076.7,070.0,461.000,464.850,5.7278,5.7276,34.2068,34.2055,34.2059,34.2060,0.47417,0.54,0.59,0.0244,,,1.7749,41.61,40.815,26.9646,26.9640,0.3976,90.5374,5.2535e+00,9.9990e+03,,,,,,,
CalCOFI,0701JD,071,703,29-Jan-2007 1:32:14 PM,29-Jan-2007 5:32:14 AM,34.38832,-122.24484,076.7 070.0,076.7,070.0,460.000,463.841,5.7220,5.7222,34.1978,34.1965,34.1973,34.1974,0.47976,0.55,0.60,0.0246,,,1.7855,41.92,41.149,26.9582,26.9578,0.3972,90.5479,4.9799e+00,9.9990e+03,,,,,,,
CalCOFI,0701JD,071,703,29-Jan-2007 1:32:15 PM,29-Jan-2007 5:32:15 AM,34.38832,-122.24484,076.7 070.0,076.7,070.0,459.000,462.831,5.7211,5.7217,34.1980,34.1967,34.1961,34.1962,0.48371,0.56,0.60,0.0250,,,1.7807,41.78,40.998,26.9585,26.9569,0.3977,90.5355,5.0495e+00,9.9990e+03,,,,,,,
CalCOFI,0701JD,071,703,29-Jan-2007 1:32:16 PM,29-Jan-2007 5:32:16 AM,34.38832,-122.24484,076.7 070.0,076.7,070.0,458.000,461.822,5.7206,5.7217,34.1963,34.1950,34.1957,34.1958,0.48697,0.56,0.61,0.0250,,,1.7653,41.33,40.513,26.9572,26.9565,0.3973,90.5444,4.9905e+00,9.9990e+03,,,,,,,
CalCOFI,0701JD,071,703,29-Jan-2007 1:32:17 PM,29-Jan-2007 5:32:17 AM,34.38832,-122.24484,076.7 070.0,076.7,070.0,457.000,460.812,5.7267,5.7263,34.2021,34.2008,34.1992,34.1993,0.48945,0.56,0.61,0.0246,,,1.7354,40.45,39.572,26.9611,26.9587,0.3973,90.5461,4.2762e+00,9.9990e+03,,,,,,,
CalCOFI,0701JD,071,703,29-Jan-2007 1:32:18 PM,29-Jan-2007 5:32:18 AM,34.38832,-122.24484,076.7 070.0,076.7,070.0,456.000,459.803,5.7241,5.7253,34.1969,34.1956,34.1971,34.1972,0.49508,0.57,0.62,0.0247,,,1.7331,40.38,39.499,26.9572,26.9572,0.3973,90.5463,5.0181e+00,9.9990e+03,,,,,,,
CalCOFI,0701JD,071,703,29-Jan-2007 1:32:19 PM,29-Jan-2007 5:32:19 AM,34.38832,-122.24484,076.7 070.0,076.7,070.0,455.000,458.793,5.7192,5.7199,34.1950,34.1937,34.1942,34.1943,0.50371,0.58,0.63,0.0247,,,1.7308,40.32,39.427,26.9563,26.9556,0.3978,90.5340,4.9924e+00,9.9990e+03,,,,,,,
CalCOFI,0701JD,071,703,29-Jan-2007 1:32:20 PM,29-Jan-2007 5:32:20 AM,34.38832,-122.24484,076.7 070.0,076.7,070.0,454.000,457.784,5.7073,5.7119,34.1850,34.1837,34.1880,34.1881,0.51992,0.60,0.65,0.0245,,,1.7352,40.44,39.565,26.9498,26.9516,0.3976,90.5371,4.6971e+00,9.9990e+03,,,,,,,
CalCOFI,0701JD,071,703,29-Jan-2007 1:32:21 PM,29-Jan-2007 5:32:21 AM,34.38832,-122.24484,076.7 070.0,076.7,070.0,453.000,456.774,5.6959,5.6980,34.1777,34.1764,34.1787,34.1788,0.53375,0.62,0.67,0.0248,,,1.7321,40.35,39.468,26.9454,26.9459,0.3975,90.5411,4.5666e+00,9.9990e+03,,,,,,,
CalCOFI,0701JD,071,703,29-Jan-2007 1:32:22 PM,29-Jan-2007 5:32:22 AM,34.38832,-122.24484,076.7 070.0,076.7,070.0,452.000,455.765,5.7057,5.7071,34.1760,34.1747,34.1733,34.1734,0.53909,0.62,0.67,0.0247,,,1.7252,40.15,39.250,26.9428,26.9406,0.3971,90.5506,5.1309e+00,9.9990e+03,,,,,,,
CalCOFI,0701JD,071,703,29-Jan-2007 1:32:23 PM,29-Jan-2007 5:32:23 AM,34.38832,-122.24484,076.7 070.0,076.7,070.0,451.000,454.756,5.7117,5.7115,34.1750,34.1737,34.1709,34.1710,0.54254,0.63,0.68,-9.990e-29,,,1.7053,39.57,38.624,26.9414,26.9381,0.3973,90.5442,4.8016e+00,9.9990e+03,,,,,,,
CalCOFI,0701JD,071,703,29-Jan-2007 1:32:24 PM,29-Jan-2007 5:32:24 AM,34.38832,-122.24484,076.7 070.0,076.7,070.0,450.000,453.746,5.7271,5.7343,34.1792,34.1779,34.1773,34.1774,0.54482,0.63,0.68,-9.990e-29,,,1.7436,40.69,39.830,26.9428,26.9404,0.3973,90.5442,4.6024e+00,9.9990e+03,,,,,,,
CalCOFI,0701JD,071,703,29-Jan-2007 1:32:25 PM,29-Jan-2007 5:32:25 AM,34.38832,-122.24484,076.7 070.0,076.7,070.0,449.000,452.737,5.7347,5.7347,34.1807,34.1794,34.1784,34.1785,0.54713,0.63,0.68,-9.990e-29,,,1.7376,40.51,39.641,26.9430,26.9411,0.3975,90.5401,4.9038e+00,9.9990e+03,,,,,,,
CalCOFI,0701JD,071,703,29-Jan-2007 1:32:26 PM,29-Jan-2007 5:32:26 AM,34.38832,-122.24484,076.7 070.0,076.7,070.0,448.000,451.727,5.7322,5.7321,34.1793,34.1780,34.1777,34.1778,0.55510,0.64,0.69,0.0250,,,1.7555,41.04,40.205,26.9422,26.9409,0.3971,90.5494,4.8380e+00,9.9990e+03,,,,,,,
CalCOFI,0701JD,071,703,29-Jan-2007 1:32:27 PM,29-Jan-2007 5:32:27 AM,34.38832,-122.24484,076.7 070.0,076.7,070.0,447.000,450.718,5.7233,5.7144,34.1748,34.1735,34.1733,34.1734,0.56753,0.66,0.71,0.0249,,,1.7562,41.06,40.227,26.9397,26.9396,0.3975,90.5411,5.5516e+00,9.9990e+03,,,,,,,
CalCOFI,0701JD,071,703,29-Jan-2007 1:32:28 PM,29-Jan-2007 5:32:28 AM,34.38832,-122.24484,076.7 070.0,076.7,070.0,446.000,449.708,5.6695,5.6663,34.1568,34.1555,34.1600,34.1601,0.58693,0.68,0.73,0.0245,,,1.7136,39.81,38.885,26.9320,26.9349,0.3977,90.5365,4.9180e+00,9.9990e+03,,,,,,,
CalCOFI,0701JD,071,703,29-Jan-2007 1:32:30 PM,29-Jan-2007 5:32:30 AM,34.38832,-122.24484,076.7 070.0,076.7,070.0,445.000,448.699,5.6315,5.6186,34.1476,34.1463,34.1493,34.1494,0.60279,0.70,0.75,0.0245,,,1.7388,40.55,39.679,26.9293,26.9323,0.3977,90.5355,4.7216e+00,9.9990e+03,,,,,,,
CalCOFI,0701JD,071,703,29-Jan-2007 1:32:30 PM,29-Jan-2007 5:32:30 AM,34.38832,-122.24484,076.7 070.0,076.7,070.0,444.000,447.690,5.6208,5.6317,34.1542,34.1529,34.1485,34.1486,0.61072,0.71,0.76,0.0244,,,1.7465,40.78,39.921,26.9359,26.9300,-9.990e-29,-9.990e-29,4.5371e+00,9.9990e+03,,,,,,,
CalCOFI,0701JD,071,703,29-Jan-2007 1:32:31 PM,29-Jan-2007 5:32:31 AM,34.38832,-122.24484,076.7 070.0,076.7,070.0,443.000,446.680,5.6507,5.6531,34.1547,34.1534,34.1508,34.1509,0.61798,0.72,0.77,0.0251,,,1.7244,40.13,39.225,26.9326,26.9292,-9.990e-29,-9.990e-29,4.7546e+00,9.9990e+03,,,,,,,
CalCOFI,0701JD,071,703,29-Jan-2007 1:32:32 PM,29-Jan-2007 5:32:32 AM,34.38832,-122.24484,076.7 070.0,076.7,070.0,442.000,445.671,5.6600,5.6612,34.1552,34.1539,34.1520,34.1521,0.63020,0.73,0.79,0.0243,,,1.7091,39.68,38.744,26.9318,26.9292,-9.990e-29,-9.990e-29,5.2127e+00,9.9990e+03,,,,,,,
CalCOFI,0701JD,071,703,29-Jan-2007 1:32:33 PM,29-Jan-2007 5:32:33 AM,34.38832,-122.24484,076.7 070.0,076.7,070.0,441.000,444.662,5.6571,5.6519,34.1451,34.1438,34.1485,34.1486,0.64485,0.75,0.80,0.0244,,,1.7094,39.69,38.753,26.9242,26.9276,-9.990e-29,-9.990e-29,4.5867e+00,9.9990e+03,,,,,,,
CalCOFI,0701JD,071,703,29-Jan-2007 1:32:34 PM,29-Jan-2007 5:32:34 AM,34.38832,-122.24484,076.7 070.0,076.7,070.0,440.000,443.652,5.6020,5.5953,34.1291,34.1278,34.1343,34.1344,0.65598,0.77,0.82,0.0238,,,1.7572,41.09,40.258,26.9182,26.9232,-9.990e-29,-9.990e-29,5.3169e+00,9.9990e+03,,,,,,,
CalCOFI,0701JD,071,703,29-Jan-2007 1:32:35 PM,29-Jan-2007 5:32:35 AM,34.38832,-122.24484,076.7 070.0,076.7,070.0,439.000,442.643,5.5770,5.5758,34.1295,34.1282,34.1293,34.1294,0.66361,0.77,0.83,0.0245,,,1.7604,41.18,40.359,26.9215,26.9216,-9.990e-29,-9.990e-29,5.2796e+00,9.9990e+03,,,,,,,
CalCOFI,0701JD,071,703,29-Jan-2007 1:32:35 PM,29-Jan-2007 5:32:35 AM,34.38832,-122.24484,076.7 070.0,076.7,070.0,438.000,441.633,5.5895,5.5934,34.1357,34.1344,34.1303,34.1304,0.66930,0.78,0.83,0.0243,,,1.7566,41.07,40.239,26.9249,26.9202,-9.990e-29,-9.990e-29,5.3542e+00,9.9990e+03,,,,,,,
CalCOFI,0701JD,071,703,29-Jan-2007 1:32:42 PM,29-Jan-2007 5:32:42 AM,34.38832,-122.24484,076.7 070.0,076.7,070.0,437.000,440.624,5.6191,5.6240,34.1398,34.1385,34.1370,34.1371,0.66956,0.78,0.83,0.0243,,,1.7367,40.49,39.613,26.9246,26.9218,0.3967,90.5597,4.8410e+00,9.9990e+03,437,5.63 ,34.138,  .81,,,40.0
CalCOFI,0701JD,071,703,29-Jan-2007 1:33:30 PM,29-Jan-2007 5:33:30 AM,34.38832,-122.24484,076.7 070.0,076.7,070.0,436.000,439.615,5.6445,5.6457,34.1419,34.1406,34.1404,34.1405,0.69782,0.82,0.87,0.0245,,,1.7612,41.21,40.384,26.9231,26.9218,0.3982,90.5246,5.0219e+00,9.9990e+03,,,,,,,
CalCOFI,0701JD,071,703,29-Jan-2007 1:33:45 PM,29-Jan-2007 5:33:45 AM,34.38832,-122.24484,076.7 070.0,076.7,070.0,435.000,438.605,5.6504,5.6513,34.1389,34.1376,34.1361,34.1362,0.70396,0.82,0.88,0.0243,,,1.7321,40.35,39.468,26.9201,26.9177,0.3975,90.5414,4.9159e+00,9.9990e+03,,,,,,,
CalCOFI,0701JD,071,703,29-Jan-2007 1:33:45 PM,29-Jan-2007 5:33:45 AM,34.38832,-122.24484,076.7 070.0,076.7,070.0,434.000,437.596,5.6555,5.6553,34.1384,34.1371,34.1367,34.1368,0.70292,0.82,0.88,0.0246,,,1.7210,40.03,39.118,26.9191,26.9177,0.3971,90.5493,5.3060e+00,9.9990e+03,,,,,,,
CalCOFI,0701JD,071,703,29-Jan-2007 1:33:46 PM,29-Jan-2007 5:33:46 AM,34.38832,-122.24484,076.7 070.0,076.7,070.0,433.000,436.587,5.6583,5.6596,34.1395,34.1382,34.1371,34.1372,0.70187,0.82,0.87,0.0241,,,1.7576,41.10,40.271,26.9196,26.9174,0.3971,90.5504,4.9125e+00,9.9990e+03,,,,,,,